Location: Pisa
(43.7170°N, 10.3830°E)
Time: 02:31:36
(UTC+02:00)

ISS - Pass Details

Date: 15 May 2021
Orbit: 417 x 422 km, 51.6° (Epoch: 17 June)

Event Time Altitude Azimuth Distance (km) Brightness Sun altitude
Rises 00:24:32 0° 274° (W) 2,364 0.3 -26.4°
Reaches altitude 10° 00:26:52 10° 288° (WNW) 1,502 -0.6 -26.5°
Maximum altitude 00:29:45 25° 347° (NNW) 882 -1.5 -26.6°
Drops below altitude 10° 00:32:38 10° 45° (NE) 1,508 -0.6 -26.7°
Sets 00:34:59 0° 59° (ENE) 2,375 0.3 -26.8°
